User: anonymous   Login
Location: Oshawa
(43.9000°N, 78.8670°W)
Time: 05:49:47
(UTC-04:00)
Language:

Iridium 54 - Orbit

View from above orbital plane
View from above orbital plane
View from above satellite
View from above satellite

Ground track
Ground track

The orbit data is extracted from the following two-line orbital elements,

1 25171U 98010C   17295.62459670 -.00000033 +00000-0 -18891-4 0  9996
2 25171 086.3919 297.1306 0002210 087.2859 272.8589 14.34216955030213
Epoch (UTC): 22 October 2017 14:59:25
Eccentricity: 0.0002210
inclination: 86.3919°
perigee height: 776 km
apogee height: 779 km
right ascension of ascending node: 297.1306°
argument of perigee: 87.2859°
revolutions per day: 14.34216955
mean anomaly at epoch: 272.8589°
orbit number at epoch: 3021

The dashed part of the orbit path shows where the satellite is in the earth's shadow,  

DLR